Location: Brabourne
(51.1333°N, 1.0000°E)
Time: 03:28:33
(UTC+00:00)

IRS-1D - Visible Passes

Search period start: 20 October 2021 00:00
Search period end: 30 October 2021 00:00
Orbit: 740 x 816 km, 98.6° (Epoch: 19 October)

Date Brightness Start Highest point End Pass type
(mag) Time Alt. Az. Time Alt. Az. Time Alt. Az.
20 Oct 5.2 02:46:56 10° NNE 02:49:15 27° NNE 02:49:15 27° NNE visible
20 Oct 5.3 04:27:25 10° NNW 04:29:43 16° NW 04:29:43 16° NW visible
21 Oct 5.7 02:14:01 10° NNE 02:15:44 21° NNE 02:15:44 21° NNE visible
21 Oct 5.1 03:53:45 10° N 03:56:12 22° NNW 03:56:12 22° NNW visible
22 Oct 6.3 01:41:24 10° NNE 01:42:14 14° NE 01:42:14 14° NE visible
22 Oct 5.1 03:20:24 10° N 03:22:42 25° N 03:22:42 25° N visible
23 Oct 5.4 02:47:16 10° NNE 02:49:11 23° NNE 02:49:11 23° NNE visible
23 Oct 5.4 04:27:46 10° NNW 04:29:39 15° NW 04:29:39 15° NW visible
24 Oct 5.9 02:14:21 10° NNE 02:15:40 18° NNE 02:15:40 18° NNE visible
24 Oct 5.2 03:54:04 10° N 03:56:08 20° NNW 03:56:08 20° NNW visible
25 Oct 6.4 01:41:43 10° NNE 01:42:10 12° NE 01:42:10 12° NE visible
25 Oct 5.3 03:20:43 10° N 03:22:38 22° N 03:22:38 22° N visible
26 Oct 5.6 02:47:35 10° NNE 02:49:06 20° NNE 02:49:06 20° NNE visible
26 Oct 5.4 04:28:06 10° NNW 04:29:34 14° NNW 04:29:34 14° NNW visible
27 Oct 6.1 02:14:40 10° NNE 02:15:36 15° NNE 02:15:36 15° NNE visible
27 Oct 5.4 03:54:24 10° N 03:56:04 18° NNW 03:56:04 18° NNW visible
28 Oct 6.5 01:42:02 10° NNE 01:42:06 10° NE 01:42:06 10° NE visible
28 Oct 5.5 03:21:02 10° N 03:22:33 19° N 03:22:33 19° N visible
29 Oct 5.8 02:47:54 10° NNE 02:49:02 17° NNE 02:49:02 17° NNE visible
29 Oct 5.5 04:28:26 10° NNW 04:29:31 13° NNW 04:29:31 13° NNW visible
